Fort Smith, AR

6:27 AM CDT on March 29, 2017 (GMT -0500)
Fort Smith Regional

Weather History for KFSM - October, 2014

Change the Weather History Date:

Monday, October 20, 2014

  Actual Average Record
Temperature  
Mean Temperature 64 °F 62 °F  
Max Temperature 74 °F 74 °F 88 °F (2003)
Min Temperature 53 °F 49 °F 26 °F (1989)
Degree Days  
Heating Degree Days 1 5  
Month to date heating degree days 39 65  
Since 1 July heating degree days 43 82  
Cooling Degree Days 0 2  
Month to date cooling degree days 70 56  
Year to date cooling degree days 2029 2034  
Growing Degree Days 13 (Base 50)    
Moisture  
Dew Point 55 °F    
Average Humidity 75    
Maximum Humidity 93    
Minimum Humidity 57    
Precipitation  
Precipitation 0.06 in 0.15 in 3.02 in (1984)
Month to date precipitation 7.62 2.74  
Year to date precipitation 37.97 36.15  
Sea Level Pressure  
Sea Level Pressure 30.06 in    
Wind  
Wind Speed 2 mph (ENE)    
Max Wind Speed 8 mph    
Max Gust Speed 10 mph    
Visibility 10 miles    
Events      
T = Trace of Precipitation, MM = Missing Value Source: NWS Daily Summary

Daily Weather History Graph

Daily Weather History Graph

Search for Another Location

Airport or City:

Trip Planner

Search our weather history database for the weather conditions in past years. The results will help you decide how hot, cold, wet, or windy it might be!

Date:

Astronomy

Oct. 20, 2014 Rise Set
Actual Time 7:28 AM CDT 6:35 PM CDT
Civil Twilight 7:02 AM CDT 7:01 PM CDT
Nautical Twilight 6:32 AM CDT 7:31 PM CDT
Astronomical Twilight 6:03 AM CDT 8:00 PM CDT
Moon 4:23 AM CDT (10/20) 4:53 PM CDT (10/20)
Length of Visible Light 11h 59m
Length of Day
11h 07m
Waning Crescent, 10% of the Moon is Illuminated
Oct 20
Waning Crescent
Oct 23
New
Oct 30
First Quarter
Nov 6
Full
Nov 14
Last Quarter

Hourly Weather History & Observations

Time (CDT) Temp. Dew Point Humidity Pressure Visibility Wind Dir Wind Speed Gust Speed Precip Events Conditions
12:53 AM 55.9 °F 52.0 °F 87% 30.07 in 10.0 mi East 3.5 mph - N/A   Clear
1:53 AM 55.9 °F 52.0 °F 87% 30.06 in 10.0 mi ENE 3.5 mph - N/A   Clear
2:53 AM 55.0 °F 52.0 °F 89% 30.06 in 10.0 mi East 3.5 mph - N/A   Clear
3:53 AM 55.0 °F 51.1 °F 86% 30.04 in 10.0 mi ENE 3.5 mph - N/A   Clear
4:53 AM 54.0 °F 51.1 °F 90% 30.05 in 10.0 mi NE 3.5 mph - N/A   Clear
5:53 AM 54.0 °F 51.1 °F 90% 30.07 in 10.0 mi Calm Calm - N/A   Mostly Cloudy
6:53 AM 55.4 °F 51.8 °F 88% 30.08 in 10.0 mi NE 3.5 mph - N/A   Overcast
7:53 AM 55.0 °F 53.1 °F 93% 30.08 in 10.0 mi Calm Calm - N/A   Mostly Cloudy
8:53 AM 57.0 °F 53.1 °F 87% 30.10 in 10.0 mi ENE 3.5 mph - N/A   Mostly Cloudy
9:53 AM 57.9 °F 53.1 °F 84% 30.11 in 10.0 mi Calm Calm - N/A   Mostly Cloudy
10:53 AM 60.1 °F 53.1 °F 78% 30.11 in 10.0 mi Calm Calm - 0.00 in   Mostly Cloudy
11:53 AM 62.6 °F 53.6 °F 72% 30.10 in 10.0 mi ENE 3.5 mph - N/A   Overcast
12:53 PM 64.0 °F 55.0 °F 73% 30.08 in 10.0 mi Calm Calm - N/A   Overcast
1:53 PM 68.0 °F 55.0 °F 63% 30.05 in 10.0 mi East 3.5 mph - N/A   Mostly Cloudy
2:53 PM 71.1 °F 55.0 °F 57% 30.03 in 10.0 mi Variable 4.6 mph - N/A   Clear
3:48 PM 71.6 °F 55.4 °F 57% 30.02 in 10.0 mi West 3.5 mph - N/A   Overcast
3:53 PM 71.1 °F 55.0 °F 57% 30.01 in 10.0 mi Calm Calm - N/A   Overcast
4:53 PM 73.0 °F 57.0 °F 57% 30.01 in 10.0 mi NNW 3.5 mph - N/A   Mostly Cloudy
5:00 PM 73.9 °F 57.0 °F 55% 30.02 in 10.0 mi NNW 3.5 mph - N/A   Clear
5:53 PM 70.0 °F 57.0 °F 63% 30.02 in 10.0 mi ENE 5.8 mph - N/A   Clear
6:53 PM 66.0 °F 57.9 °F 75% 30.03 in 10.0 mi SE 3.5 mph - N/A   Mostly Cloudy
7:53 PM 64.9 °F 57.9 °F 78% 30.04 in 10.0 mi Calm Calm - N/A   Mostly Cloudy
8:53 PM 63.0 °F 57.9 °F 84% 30.04 in 10.0 mi Calm Calm - N/A   Mostly Cloudy
9:53 PM 62.1 °F 57.9 °F 86% 30.05 in 10.0 mi Calm Calm - N/A   Scattered Clouds
10:53 PM 61.0 °F 57.9 °F 90% 30.05 in 10.0 mi Calm Calm - N/A   Clear
11:53 PM 59.0 °F 57.0 °F 93% 30.06 in 8.0 mi East 3.5 mph - N/A   Clear